Flag for U.S.A. Weather past 2 weeks in Jackson, Mississippi, U.S.A.

Now
85 °F

Passing clouds.


Feels Like: 93 °F
Forecast: 72 / 92 °F
Wind: 3 mph from North

Location: Hawkins Field

Current Time: Jul 30, 2015 at 11:19:28 PM

Latest Report: Jul 30, 2015 at 9:53 PM


Visibility: 10 mi

Pressure: 30.00 "Hg

Humidity: 72%

Dew point: 75 °F

Location of JacksonLocation

Historic Weather in Jackson — Graph

°F

Jackson temperature yesterday

Maximum temperature yesterday: 98 °F (at 1:53 PM)
Minimum temperature yesterday: 79 °F (at 6:53 AM)
Average temperature yesterday: 88 °F

Past Weeks' High & Low Weather Summary

 TemperatureHumidityPressure
High99 °F (Jul 27, 3:53 PM)94% (Jul 26, 2:53 AM)30.04 "Hg (Jul 26, 2:53 AM)
Low74 °F (Jul 26, 2:53 AM)31% (Jul 27, 3:53 PM)29.84 "Hg (Jul 21, 5:53 PM)
Average86 °F66%29.95 "Hg
* Reported Jul 15 9:53 PM — Jul 30 9:53 PM, Jackson, Weather by CustomWeather, © 2015

Note: Actual official high and low records may vary slightly from our data, if they occured in-between our weather recording intervals... More about our weather records

Advertising

Jackson weather history for previous 24 hours

 ConditionsComfort  
Time TempWeatherWind HumidityBarometerVisibility
9:53 PM
Thu, Jul 30
85 °FPassing clouds.3 mph72%30.00 "Hg10 mi
8:53 PM87 °FSunny.3 mph67%29.97 "Hg10 mi
7:53 PM89 °FSunny.N/A63%29.96 "Hg10 mi
6:53 PM92 °FPassing clouds.9 mph54%29.93 "Hg10 mi
5:53 PM86 °FPassing clouds.3 mph80%29.93 "Hg10 mi
4:59 PM84 °FHeavy rain. Partly sunny.20 mph70%29.98 "Hg1 mi
3:53 PM95 °FPassing clouds.9 mph49%29.92 "Hg10 mi
2:53 PM99 °FPassing clouds.12 mph42%29.94 "Hg10 mi
1:53 PM97 °FThundershowers. Scattered clouds.12 mph45%29.97 "Hg10 mi
12:53 PM98 °FPassing clouds.9 mph45%30.00 "Hg10 mi
11:53 AM97 °FPartly sunny.N/A49%30.01 "Hg10 mi
10:53 AM95 °FSunny.3 mph54%30.01 "Hg10 mi
9:53 AM91 °FSunny.5 mph61%30.01 "Hg10 mi
8:53 AM86 °FSunny.9 mph70%30.01 "Hg10 mi
7:53 AM82 °FSunny.7 mph77%30.00 "Hg8 mi
6:53 AM79 °FClear.5 mph82%29.99 "Hg9 mi
5:53 AM79 °FClear.5 mph79%29.98 "Hg10 mi
4:53 AM79 °FClear.6 mph79%29.98 "Hg10 mi
3:53 AM80 °FClear.3 mph76%29.98 "Hg10 mi
2:53 AM81 °FClear.No wind74%29.98 "Hg10 mi
1:53 AM80 °FClear.No wind76%30.00 "Hg10 mi
12:53 AM81 °FLight rain. Clear.No wind74%30.01 "Hg10 mi
11:53 PM
Wed, Jul 29
81 °FClear.6 mph74%30.01 "Hg10 mi
Weather by CustomWeather, © 2015

See weather overviewHow to use our weather pages